Klawock, AK

8:21 PM AKST on January 21, 2018 (GMT -0900)
Klawock

Weather History for PAKW - October, 2013

Change the Weather History Date:

Saturday, October 5, 2013

  Actual Average Record
Temperature  
Mean Temperature 51 °F -  
Max Temperature 54 °F 52 °F 59 °F (2003)
Min Temperature 48 °F 40 °F 33 °F (2011)
Degree Days  
Heating Degree Days 14    
Growing Degree Days 1 (Base 50)    
Moisture  
Dew Point 47 °F    
Average Humidity 91    
Maximum Humidity 100    
Minimum Humidity 82    
Precipitation  
Precipitation 0.27 in - - ()
Sea Level Pressure  
Sea Level Pressure 29.96 in    
Wind  
Wind Speed 4 mph (East)    
Max Wind Speed 12 mph    
Max Gust Speed -    
Visibility 9 miles    
Events Rain    
Averages and records for this station are not official NWS values.
T = Trace of Precipitation, MM = Missing Value Source: NWS Daily Summary

Daily Weather History Graph

Daily Weather History Graph

Search for Another Location

Airport or City:

Trip Planner

Search our weather history database for the weather conditions in past years. The results will help you decide how hot, cold, wet, or windy it might be!

Date:

Astronomy

Oct. 05, 2013 Rise Set
Actual Time 7:03 AM AKDT 6:16 PM AKDT
Civil Twilight 6:27 AM AKDT 6:52 PM AKDT
Nautical Twilight 5:44 AM AKDT 7:35 PM AKDT
Astronomical Twilight 5:00 AM AKDT 8:19 PM AKDT
Moon 8:05 AM AKDT (10/5) 6:21 PM AKDT (10/5)
Length of Visible Light 12h 25m
Length of Day
11h 12m
New Moon, 1% of the Moon is Illuminated
Oct 5
New Moon
Oct 11
First Quarter
Oct 18
Full
Oct 26
Last Quarter
Nov 3
New

Hourly Weather History & Observations

Time (AKDT) Temp. Dew Point Humidity Pressure Visibility Wind Dir Wind Speed Gust Speed Precip Events Conditions
12:46 AM 50.0 °F 46.4 °F 87% 29.91 in 10.0 mi South 4.6 mph - 0.05 in Rain Light Rain
12:53 AM 50.0 °F 46.0 °F 86% 29.91 in 10.0 mi SSW 5.8 mph - 0.05 in Rain Light Rain
1:26 AM 48.2 °F 46.4 °F 93% 29.92 in 6.0 mi SSW 5.8 mph - 0.03 in Rain Light Rain
1:53 AM 48.9 °F 48.0 °F 97% 29.94 in 3.0 mi SSW 5.8 mph - 0.11 in Rain Rain
2:00 AM 48.2 °F 48.2 °F 100% 29.94 in 7.0 mi South 4.6 mph - 0.01 in Rain Light Rain
2:30 AM 48.2 °F 46.4 °F 93% 29.95 in 8.0 mi South 6.9 mph - 0.01 in Rain Light Rain
2:53 AM 48.9 °F 46.9 °F 93% 29.95 in 7.0 mi Variable 6.9 mph - 0.02 in   Overcast
3:53 AM 48.9 °F 46.9 °F 93% 29.97 in 10.0 mi South 6.9 mph - 0.00 in   Overcast
4:13 AM 48.2 °F 46.4 °F 93% 29.97 in 10.0 mi South 5.8 mph - N/A   Overcast
4:53 AM 48.9 °F 46.0 °F 90% 29.98 in 10.0 mi Variable 4.6 mph - 0.01 in Rain Light Rain
5:30 AM 48.2 °F 46.4 °F 93% 29.98 in 10.0 mi SSW 3.5 mph - 0.00 in Rain Light Rain
5:53 AM 48.0 °F 46.9 °F 96% 29.99 in 8.0 mi Calm Calm - 0.03 in Rain Light Rain
6:30 AM 48.2 °F 46.4 °F 93% 29.99 in 10.0 mi South 4.6 mph - 0.01 in   Overcast
6:53 AM 48.9 °F 46.9 °F 93% 30.00 in 10.0 mi South 5.8 mph - 0.02 in Rain Light Rain
7:53 AM 48.9 °F 46.0 °F 90% 30.01 in 10.0 mi Calm Calm - 0.00 in   Overcast
8:07 AM 48.2 °F 46.4 °F 93% 30.01 in 10.0 mi Calm Calm - N/A   Overcast
8:33 AM 48.2 °F 48.2 °F 100% 30.02 in 10.0 mi Calm Calm - N/A   Overcast
8:53 AM 48.9 °F 48.0 °F 97% 30.02 in 10.0 mi Calm Calm - 0.00 in Rain Light Rain
9:14 AM 50.0 °F 48.2 °F 94% 30.03 in 9.0 mi Calm Calm - 0.00 in Rain Light Rain
9:24 AM 50.0 °F 48.2 °F 94% 30.03 in 10.0 mi Calm Calm - 0.00 in   Overcast
9:53 AM 50.0 °F 48.0 °F 93% 30.03 in 10.0 mi Calm Calm - 0.00 in Rain Light Rain
10:15 AM 50.0 °F 48.2 °F 94% 30.03 in 10.0 mi North 4.6 mph - 0.00 in   Overcast
10:53 AM 52.0 °F 48.9 °F 89% 30.03 in 10.0 mi NNE 4.6 mph - 0.00 in   Scattered Clouds
11:53 AM 52.0 °F 48.9 °F 89% 30.03 in 10.0 mi NNE 3.5 mph - N/A   Overcast
12:53 PM 53.1 °F 48.9 °F 86% 30.01 in 10.0 mi NE 4.6 mph - N/A   Overcast
1:53 PM 54.0 °F 48.9 °F 83% 29.99 in 10.0 mi NNE 4.6 mph - N/A   Overcast
2:15 PM 53.6 °F 48.2 °F 82% 29.99 in 10.0 mi Variable 4.6 mph - N/A   Overcast
2:22 PM 51.8 °F 46.4 °F 82% 29.99 in 8.0 mi Variable 3.5 mph - N/A   Overcast
2:53 PM 53.1 °F 48.9 °F 86% 29.99 in 10.0 mi Calm Calm - 0.01 in   Overcast
3:53 PM 53.1 °F 48.9 °F 86% 29.97 in 10.0 mi Calm Calm - 0.00 in   Overcast
4:53 PM 51.1 °F 48.0 °F 89% 29.94 in 10.0 mi NNE 5.8 mph - N/A   Mostly Cloudy
5:53 PM 50.0 °F 48.0 °F 93% 29.93 in 10.0 mi NE 3.5 mph - N/A   Overcast
6:53 PM 50.0 °F 48.0 °F 93% 29.90 in 10.0 mi NNE 3.5 mph - N/A   Overcast
7:53 PM 50.0 °F 46.9 °F 89% 29.87 in 10.0 mi Variable 3.5 mph - N/A   Overcast
8:53 PM 50.0 °F 46.9 °F 89% 29.84 in 10.0 mi NNE 9.2 mph - N/A   Overcast
9:53 PM 50.0 °F 46.9 °F 89% 29.81 in 10.0 mi NNE 8.1 mph - N/A   Overcast
10:53 PM 50.0 °F 46.9 °F 89% 29.77 in 10.0 mi ENE 4.6 mph - N/A   Overcast
11:53 PM 48.9 °F 46.9 °F 93% 29.74 in 10.0 mi NNE 11.5 mph - 0.02 in   Overcast